Whidbey Island, WA

1:47 PM PST on December 18, 2017 (GMT -0800)
Whidbey Island Naval Air Station

Weather History for KNUW - September, 2013

Change the Weather History Date:

Monday, September 2, 2013

  Actual Average Record
Temperature  
Mean Temperature 60 °F -  
Max Temperature 69 °F 64 °F 75 °F (2005)
Min Temperature 55 °F 48 °F 41 °F (1999)
Degree Days  
Heating Degree Days 4    
Growing Degree Days 10 (Base 50)    
Moisture  
Dew Point 54 °F    
Average Humidity 81    
Maximum Humidity 90    
Minimum Humidity 66    
Precipitation  
Precipitation 0.00 in - - ()
Sea Level Pressure  
Sea Level Pressure 29.92 in    
Wind  
Wind Speed 3 mph (WSW)    
Max Wind Speed 8 mph    
Max Gust Speed -    
Visibility 10 miles    
Events      
Averages and records for this station are not official NWS values.
T = Trace of Precipitation, MM = Missing Value Source: NWS Daily Summary

Daily Weather History Graph

Daily Weather History Graph

Search for Another Location

Airport or City:

Trip Planner

Search our weather history database for the weather conditions in past years. The results will help you decide how hot, cold, wet, or windy it might be!

Date:

Astronomy

Sep. 02, 2013 Rise Set
Actual Time 6:30 AM PDT 7:49 PM PDT
Civil Twilight 5:57 AM PDT 8:21 PM PDT
Nautical Twilight 5:18 AM PDT 9:00 PM PDT
Astronomical Twilight 4:36 AM PDT 9:42 PM PDT
Moon 3:44 AM PDT (9/2) 6:11 PM PDT (9/2)
Length of Visible Light 14h 23m
Length of Day
13h 19m
Waning Crescent, 7% of the Moon is Illuminated
Sep 2
Waning Crescent
Sep 5
New
Sep 12
First Quarter
Sep 19
Full
Sep 26
Last Quarter

Hourly Weather History & Observations

Time (PDT) Temp. Dew Point Humidity Pressure Visibility Wind Dir Wind Speed Gust Speed Precip Events Conditions
12:56 AM 57.0 °F 52.0 °F 83% 29.90 in 10.0 mi Calm Calm - N/A   Partly Cloudy
1:56 AM 55.9 °F 52.0 °F 87% 29.91 in 10.0 mi Calm Calm - N/A   Clear
2:56 AM 55.9 °F 53.1 °F 90% 29.89 in 10.0 mi East 5.8 mph - N/A   Clear
3:56 AM 55.9 °F 53.1 °F 90% 29.89 in 10.0 mi ESE 6.9 mph - N/A   Clear
4:56 AM 57.0 °F 54.0 °F 89% 29.88 in 10.0 mi ESE 8.1 mph - N/A   Scattered Clouds
6:56 AM 57.9 °F 55.0 °F 90% 29.90 in 10.0 mi ESE 3.5 mph - N/A   Mostly Cloudy
7:56 AM 61.0 °F 55.9 °F 83% 29.91 in 10.0 mi Calm Calm - N/A   Mostly Cloudy
8:56 AM 66.0 °F 59.0 °F 78% 29.91 in 10.0 mi ESE 5.8 mph - N/A   Mostly Cloudy
9:56 AM 62.1 °F 55.0 °F 78% 29.91 in 10.0 mi West 5.8 mph - N/A   Mostly Cloudy
10:56 AM 59.0 °F 54.0 °F 83% 29.92 in 10.0 mi WSW 5.8 mph - N/A   Mostly Cloudy
11:56 AM 64.0 °F 54.0 °F 70% 29.92 in 10.0 mi West 5.8 mph - N/A   Mostly Cloudy
12:56 PM 64.0 °F 54.0 °F 70% 29.91 in 10.0 mi West 5.8 mph - N/A   Overcast
1:56 PM 62.1 °F 54.0 °F 75% 29.91 in 10.0 mi West 6.9 mph - N/A   Clear
2:56 PM 60.1 °F 54.0 °F 80% 29.92 in 10.0 mi West 5.8 mph - N/A   Clear
3:56 PM 64.9 °F 55.0 °F 70% 29.91 in 10.0 mi West 4.6 mph - N/A   Clear
4:56 PM 66.9 °F 55.0 °F 66% 29.90 in 10.0 mi Calm Calm - N/A   Scattered Clouds
5:56 PM 64.0 °F 54.0 °F 70% 29.92 in 10.0 mi West 4.6 mph - N/A   Mostly Cloudy
6:56 PM 64.0 °F 55.0 °F 73% 29.92 in 10.0 mi WSW 5.8 mph - N/A   Overcast
7:56 PM 61.0 °F 55.9 °F 83% 29.92 in 10.0 mi Calm Calm - N/A   Scattered Clouds
8:56 PM 60.1 °F 55.9 °F 86% 29.94 in 10.0 mi Variable 3.5 mph - N/A   Clear
9:56 PM 59.0 °F 55.0 °F 87% 29.95 in 10.0 mi West 3.5 mph - N/A   Clear
10:56 PM 57.9 °F 54.0 °F 87% 29.96 in 10.0 mi SW 4.6 mph - N/A   Clear
11:56 PM 55.9 °F 53.1 °F 90% 29.97 in 10.0 mi Calm Calm - N/A   Partly Cloudy